Tracking 33747 objects as of 11-Apr-2026
HD Live streaming from Space Station
objects crossing your sky now

COSMOS 1486

Track COSMOS 1486 now!
10-day predictions
COSMOS 1486 is classified as:


NORAD ID: 14240
Int'l Code: 1983-079A
Perigee: 773.8 km
Apogee: 791.6 km
Inclination: 74.1 °
Period: 100.4 minutes
Semi major axis: 7153 km
RCS: 2.07 m2 (large)
Launch date: August 3, 1983
Source: Commonwealth of Independent States (former USSR) (CIS)
Launch site: PLESETSK MISSILE AND SPACE COMPLEX (PKMTR)
Your satellite tracking list
Your tracking list is empty




NASA's NSSDC Master Catalog

Two Line Element Set (TLE):
1 14240U 83079A   26101.18127542  .00000087  00000-0  39622-4 0  9999
2 14240  74.0578 173.6404 0012467 108.4701 281.0559 14.34852431232147
Source of the keplerian elements: AFSPC